Fergus Falls, MN

2:02 AM CST on December 09, 2019 (GMT -0600)
Fergus Falls Municipal-Mickelson

Weather History for KFFM - October, 2019

Change the Weather History Date:

Saturday, October 26, 2019

  Actual Average Record
Temperature  
Mean Temperature 47 °F -  
Max Temperature 55 °F 52 °F 83 °F (1955)
Min Temperature 39 °F 32 °F 16 °F (1988)
Degree Days  
Heating Degree Days 18    
Moisture  
Dew Point 33 °F    
Average Humidity 64    
Maximum Humidity 76    
Minimum Humidity 47    
Precipitation  
Precipitation 0.00 in - - ()
Sea Level Pressure  
Sea Level Pressure 29.69 in    
Wind  
Wind Speed 13 mph ()    
Max Wind Speed 24 mph    
Max Gust Speed 32 mph    
Visibility 10.0 miles    
Events      
Averages and records for this station are not official NWS values.
T = Trace of Precipitation, MM = Missing Value Source: Averaged Metar Reports

Daily Weather History Graph

Daily Weather History Graph

Search for Another Location

Airport or City:

Astronomy

Oct. 26, 2019 Rise Set
Actual Time 7:56 AM CDT 6:19 PM CDT
Civil Twilight 7:25 AM CDT 6:50 PM CDT
Nautical Twilight 6:50 AM CDT 7:25 PM CDT
Astronomical Twilight 6:16 AM CDT 8:00 PM CDT
Moon 5:42 AM CDT (10/26) 6:04 PM CDT (10/26)
Length of Visible Light 11h 24m
Length of Day
10h 22m
Waning Crescent, 3% of the Moon is Illuminated
Oct 26
Waning Crescent
Oct 27
New
Nov 4
First Quarter
Nov 12
Full
Nov 19
Last Quarter

Hourly Weather History & Observations

Time (CDT) Temp. Windchill Dew Point Humidity Pressure Visibility Wind Dir Wind Speed Gust Speed Precip Events Conditions
12:15 AM 44.6 °F 38.8 °F 33.8 °F 66% 29.83 in 10.0 mi South 11.5 mph 17.3 mph N/A   Clear
12:35 AM 44.6 °F 38.4 °F 33.8 °F 66% 29.83 in 10.0 mi South 12.7 mph - N/A   Clear
12:55 AM 42.8 °F 35.8 °F 33.8 °F 70% 29.81 in 10.0 mi SSE 13.8 mph - N/A   Clear
12:56 AM 42.8 °F 35.4 °F 33.8 °F 70% 29.81 in 10.0 mi SSE 15.0 mph - N/A   Clear
1:19 AM 42.8 °F 36.6 °F 33.8 °F 70% 29.81 in 10.0 mi SSE 11.5 mph - N/A   Clear
1:37 AM 41.0 °F 34.3 °F 33.8 °F 76% 29.80 in 10.0 mi SSE 11.5 mph - N/A   Clear
1:56 AM 41.0 °F 33.9 °F 33.8 °F 76% 29.79 in 10.0 mi SSE 12.7 mph - N/A   Clear
2:15 AM 41.0 °F 34.3 °F 33.8 °F 76% 29.78 in 10.0 mi SSE 11.5 mph - N/A   Clear
2:35 AM 41.0 °F 33.5 °F 32.0 °F 70% 29.77 in 10.0 mi SSE 13.8 mph - N/A   Clear
2:39 AM 41.0 °F 33.5 °F 32.0 °F 70% 29.77 in 10.0 mi SSE 13.8 mph - N/A   Clear
2:57 AM 42.8 °F 35.4 °F 32.0 °F 66% 29.76 in 10.0 mi SSE 15.0 mph 20.7 mph N/A   Clear
3:15 AM 42.8 °F 35.8 °F 32.0 °F 66% 29.76 in 10.0 mi SSE 13.8 mph - N/A   Clear
3:35 AM 41.0 °F 32.8 °F 32.0 °F 70% 29.74 in 10.0 mi SSE 16.1 mph - N/A   Clear
3:36 AM 41.0 °F 32.8 °F 32.0 °F 70% 29.74 in 10.0 mi SSE 16.1 mph - N/A   Clear
4:18 AM 41.0 °F 33.1 °F 32.0 °F 70% 29.72 in 10.0 mi SSE 15.0 mph - N/A   Clear
4:37 AM 41.0 °F 32.8 °F 32.0 °F 70% 29.71 in 10.0 mi SSE 16.1 mph 21.9 mph N/A   Clear
4:56 AM 41.0 °F 33.5 °F 32.0 °F 70% 29.70 in 10.0 mi SSE 13.8 mph - N/A   Clear
5:15 AM 41.0 °F 33.1 °F 32.0 °F 70% 29.70 in 10.0 mi SSE 15.0 mph 20.7 mph N/A   Clear
5:16 AM 41.0 °F 33.1 °F 32.0 °F 70% 29.70 in 10.0 mi South 15.0 mph 20.7 mph N/A   Clear
5:35 AM 41.0 °F 32.8 °F 30.2 °F 65% 29.69 in 10.0 mi South 16.1 mph 24.2 mph N/A   Clear
5:57 AM 39.2 °F 31.6 °F 30.2 °F 70% 29.69 in 10.0 mi South 12.7 mph - N/A   Clear
6:16 AM 41.0 °F 32.2 °F 30.2 °F 65% 29.68 in 10.0 mi SSE 18.4 mph - N/A   Clear
6:35 AM 41.0 °F 33.1 °F 30.2 °F 65% 29.68 in 10.0 mi SSE 15.0 mph - N/A   Clear
6:36 AM 41.0 °F 32.8 °F 30.2 °F 65% 29.68 in 10.0 mi SSE 16.1 mph - N/A   Clear
6:55 AM 39.2 °F 30.8 °F 30.2 °F 70% 29.67 in 10.0 mi SSE 15.0 mph 20.7 mph N/A   Clear
6:56 AM 39.2 °F 30.8 °F 30.2 °F 70% 29.67 in 10.0 mi SSE 15.0 mph 20.7 mph N/A   Clear
7:19 AM 39.2 °F 31.2 °F 30.2 °F 70% 29.67 in 10.0 mi SSE 13.8 mph - N/A   Clear
7:36 AM 39.2 °F 31.6 °F 30.2 °F 70% 29.66 in 10.0 mi SSE 12.7 mph - N/A   Clear
7:55 AM 39.2 °F 31.2 °F 30.2 °F 70% 29.65 in 10.0 mi SSE 13.8 mph - N/A   Clear
8:15 AM 39.2 °F 30.5 °F 30.2 °F 70% 29.65 in 10.0 mi SSE 16.1 mph 20.7 mph N/A   Clear
8:35 AM 39.2 °F 30.8 °F 30.2 °F 70% 29.65 in 10.0 mi SSE 15.0 mph 20.7 mph N/A   Clear
8:40 AM 39.2 °F 30.2 °F 30.2 °F 70% 29.65 in 10.0 mi SSE 17.3 mph 20.7 mph N/A   Clear
8:57 AM 39.2 °F 30.8 °F 30.2 °F 70% 29.66 in 10.0 mi South 15.0 mph - N/A   Clear
9:15 AM 39.2 °F 31.2 °F 30.2 °F 70% 29.67 in 10.0 mi South 13.8 mph 19.6 mph N/A   Clear
9:35 AM 41.0 °F 33.5 °F 30.2 °F 65% 29.67 in 10.0 mi SSE 13.8 mph - N/A   Clear
9:55 AM 42.8 °F 35.1 °F 32.0 °F 66% 29.65 in 10.0 mi SSE 16.1 mph 21.9 mph N/A   Clear
9:56 AM 42.8 °F 35.1 °F 32.0 °F 66% 29.65 in 10.0 mi SSE 16.1 mph 21.9 mph N/A   Clear
10:19 AM 44.6 °F 37.4 °F 32.0 °F 61% 29.65 in 10.0 mi South 16.1 mph - N/A   Clear
10:36 AM 44.6 °F 37.2 °F 32.0 °F 61% 29.65 in 10.0 mi South 17.3 mph 21.9 mph N/A   Scattered Clouds
10:56 AM 46.4 °F 39.5 °F 32.0 °F 57% 29.65 in 10.0 mi South 17.3 mph 24.2 mph N/A   Clear
11:15 AM 46.4 °F 39.8 °F 32.0 °F 57% 29.64 in 10.0 mi South 16.1 mph 23.0 mph N/A   Clear
11:16 AM 48.2 °F - 32.0 °F 54% 29.64 in 10.0 mi South 16.1 mph 23.0 mph N/A   Clear
11:35 AM 48.2 °F - 33.8 °F 58% 29.65 in 10.0 mi South 13.8 mph 21.9 mph N/A   Clear
11:39 AM 48.2 °F - 32.0 °F 54% 29.65 in 10.0 mi South 16.1 mph 21.9 mph N/A   Clear
11:57 AM 48.2 °F - 33.8 °F 58% 29.65 in 10.0 mi South 16.1 mph - N/A   Clear
12:15 PM 50.0 °F - 33.8 °F 54% 29.65 in 10.0 mi South 15.0 mph - N/A   Clear
12:35 PM 51.8 °F - 33.8 °F 50% 29.65 in 10.0 mi South 11.5 mph - N/A   Clear
12:36 PM 51.8 °F - 33.8 °F 50% 29.65 in 10.0 mi South 11.5 mph - N/A   Clear
12:55 PM 51.8 °F - 33.8 °F 50% 29.64 in 10.0 mi South 12.7 mph 17.3 mph N/A   Clear
12:56 PM 51.8 °F - 33.8 °F 50% 29.64 in 10.0 mi South 11.5 mph 17.3 mph N/A   Clear
1:18 PM 51.8 °F - 33.8 °F 50% 29.64 in 10.0 mi South 11.5 mph - N/A   Clear
1:36 PM 51.8 °F - 33.8 °F 50% 29.64 in 10.0 mi South 12.7 mph - N/A   Clear
1:56 PM 53.6 °F - 35.6 °F 51% 29.63 in 10.0 mi South 9.2 mph - N/A   Clear
2:15 PM 53.6 °F - 35.6 °F 51% 29.62 in 10.0 mi South 9.2 mph - N/A   Clear
2:16 PM 53.6 °F - 35.6 °F 51% 29.62 in 10.0 mi South 9.2 mph - N/A   Clear
2:35 PM 55.4 °F - 35.6 °F 47% 29.62 in 10.0 mi South 9.2 mph - N/A   Clear
2:39 PM 55.4 °F - 35.6 °F 47% 29.63 in 10.0 mi SSW 8.1 mph - N/A   Clear
2:57 PM 55.4 °F - 35.6 °F 47% 29.63 in 10.0 mi SW 8.1 mph - N/A   Clear
3:16 PM 55.4 °F - 35.6 °F 47% 29.63 in 10.0 mi SW 5.8 mph - N/A   Clear
3:35 PM 55.4 °F - 35.6 °F 47% 29.63 in 10.0 mi West 6.9 mph - N/A   Clear
3:36 PM 55.4 °F - 35.6 °F 47% 29.63 in 10.0 mi West 5.8 mph - N/A   Clear
3:55 PM 55.4 °F - 35.6 °F 47% 29.63 in 10.0 mi West 4.6 mph - N/A   Clear
3:56 PM 55.4 °F - 35.6 °F 47% 29.63 in 10.0 mi WSW 5.8 mph - N/A   Clear
4:19 PM 53.6 °F - 35.6 °F 51% 29.63 in 10.0 mi WNW 3.5 mph - N/A   Clear
4:36 PM 55.4 °F - 35.6 °F 47% 29.64 in 10.0 mi NW 5.8 mph - N/A   Clear
4:55 PM 53.6 °F - 37.4 °F 54% 29.64 in 10.0 mi NW 4.6 mph - N/A   Clear
4:56 PM 53.6 °F - 37.4 °F 54% 29.64 in 10.0 mi NW 3.5 mph - N/A   Clear
5:15 PM 53.6 °F - 37.4 °F 54% 29.64 in 10.0 mi NW 5.8 mph - N/A   Clear
5:35 PM 53.6 °F - 37.4 °F 54% 29.65 in 10.0 mi NW 6.9 mph - N/A   Clear
5:57 PM 51.8 °F - 37.4 °F 58% 29.66 in 10.0 mi NW 5.8 mph - N/A   Clear
6:15 PM 48.2 °F - 35.6 °F 62% 29.66 in 10.0 mi NW 6.9 mph - N/A   Clear
6:35 PM 46.4 °F 39.5 °F 37.4 °F 71% 29.67 in 10.0 mi NNW 17.3 mph 23.0 mph N/A   Clear
6:55 PM 46.4 °F 39.2 °F 37.4 °F 71% 29.68 in 10.0 mi NNW 18.4 mph - N/A   Clear
7:19 PM 44.6 °F 38.1 °F 37.4 °F 76% 29.70 in 10.0 mi NNW 13.8 mph 17.3 mph N/A   Clear
7:36 PM 44.6 °F 37.4 °F 37.4 °F 76% 29.70 in 10.0 mi NNW 16.1 mph 20.7 mph N/A   Clear
7:56 PM 44.6 °F 38.8 °F 37.4 °F 76% 29.72 in 10.0 mi NNW 11.5 mph - N/A   Clear
8:15 PM 44.6 °F 35.7 °F 35.6 °F 71% 29.71 in 10.0 mi NNW 24.2 mph 29.9 mph N/A   Clear
8:35 PM 42.8 °F 34.5 °F 35.6 °F 76% 29.72 in 10.0 mi NNW 18.4 mph 28.8 mph N/A   Clear
8:40 PM 42.8 °F 34.0 °F 33.8 °F 70% 29.72 in 10.0 mi North 20.7 mph 28.8 mph N/A   Clear
8:58 PM 42.8 °F 36.6 °F 33.8 °F 70% 29.74 in 10.0 mi North 11.5 mph 20.7 mph N/A   Scattered Clouds
9:35 PM 42.8 °F 33.5 °F 33.8 °F 70% 29.75 in 10.0 mi North 23.0 mph 32.2 mph N/A   Overcast
9:36 PM 42.8 °F 33.3 °F 33.8 °F 70% 29.75 in 10.0 mi North 24.2 mph 32.2 mph N/A   Overcast
9:55 PM 42.8 °F 34.0 °F 33.8 °F 70% 29.75 in 10.0 mi North 20.7 mph 28.8 mph N/A   Overcast
10:18 PM 42.8 °F 35.4 °F 33.8 °F 70% 29.77 in 10.0 mi North 15.0 mph 24.2 mph N/A   Overcast
10:37 PM 42.8 °F 35.4 °F 33.8 °F 70% 29.77 in 10.0 mi North 15.0 mph 24.2 mph N/A   Overcast
10:56 PM 42.8 °F 36.2 °F 33.8 °F 70% 29.77 in 10.0 mi North 12.7 mph 25.3 mph N/A   Overcast
11:15 PM 41.0 °F 33.5 °F 33.8 °F 76% 29.78 in 10.0 mi North 13.8 mph 19.6 mph N/A   Overcast
11:16 PM 41.0 °F 33.9 °F 33.8 °F 76% 29.78 in 10.0 mi North 12.7 mph 19.6 mph N/A   Overcast
11:35 PM 41.0 °F 33.5 °F 33.8 °F 76% 29.78 in 10.0 mi North 13.8 mph 23.0 mph N/A   Overcast
11:39 PM 41.0 °F 33.1 °F 33.8 °F 76% 29.78 in 10.0 mi North 15.0 mph 23.0 mph N/A   Overcast
11:57 PM 39.2 °F 31.6 °F 32.0 °F 75% 29.77 in 10.0 mi NNW 12.7 mph 17.3 mph N/A   Overcast